• Join FlightAware (Why Join?)
  • Login
  • US Flag GB Flag 
00:21 EDT


 

Airport Tracker/Info


-or-


 

Live Flight TrackerFlight Track Log ✈ SKW6345 ✈ 07-Oct-2013 ✈ KDEN - KCID

Flight Track Log - Related Links

Times and Time Zones

All times are in EDT time to prevent confusion due to time zone crossing. See the SKW6345 flight status page for this flight to view local times or setup timezone preferences in your user account.

Time Position Orientation Groundspeed Altitude Reporting Facility
EDT Latitude Longitude Course Direction KTS MPH feet Rate Location/Type
00:23 39.8833 -104.5833 77° East 180 207 6,700  Level Denver TRACON
00:24 39.9000 -104.5167 72° East 239 275 8,500 1,620 Climbing Denver TRACON
00:25 39.9167 -104.4167 78° East 281 323 10,200 1,500 Climbing Denver TRACON
00:26 39.9990 -104.0343 79° East  Level Estimated
00:26 39.9386 -104.3078 75° East 322 371 11,500  Level Denver Center
00:27 40.0160 -103.8698 82° East  Level FlightAware Approximate
00:27 39.9650 -104.1811 75° East 357 411 13,200  Level Denver Center
00:28 40.0498 -103.7096 77° East  Level Estimated
00:28 39.9828 -104.0467 80° East 373 429 15,200  Level Denver Center
00:29 39.9978 -103.9067 82° East 388 447 17,100 2,040 Climbing Denver Center
00:30 40.0203 -103.7644 78° East 398 458 19,400 1,800 Climbing Denver Center
00:31 40.0436 -103.6308 77° East 393 452 20,800 1,500 Climbing Denver Center
00:32 40.0683 -103.4803 78° East 420 483 22,500 1,560 Climbing Denver Center
00:33 40.0931 -103.3264 78° East 433 498 24,000 1,440 Climbing Denver Center
00:34 40.1181 -103.1694 78° East 441 507 25,500 1,320 Climbing Denver Center
00:35 40.1439 -103.0097 78° East 451 519 26,700 1,440 Climbing Denver Center
00:36 40.1739 -102.8144 79° East 456 525 28,500 1,320 Climbing Denver Center
00:37 40.1989 -102.6522 79° East 463 533 29,500 960 Climbing Denver Center
00:38 40.2242 -102.4919 78° East 468 539 30,500 960 Climbing Denver Center
00:39 40.2486 -102.3306 79° East 473 544 31,500 1,020 Climbing Denver Center
00:40 40.2772 -102.1414 79° East 475 547 32,600 960 Climbing Denver Center
00:41 40.3014 -101.9786 79° East 475 547 33,500 900 Climbing Denver Center
00:42 40.3272 -101.8172 78° East 474 545 34,500 720 Climbing Denver Center
00:43 40.3531 -101.6272 80° East 475 547 35,000 240 Climbing Denver Center
00:44 40.3764 -101.4647 79° East 474 545 35,000 240 Level Denver Center
00:45 40.3997 -101.3075 79° East 465 535 35,600 840 Climbing Denver Center
00:46 40.4317 -101.1272 77° East 458 527 36,800 1,080 Climbing Denver Center
00:47 40.4614 -100.9764 75° East 450 518 37,800 1,020 Climbing Denver Center
00:48 40.4958 -100.8019 75° East 447 514 38,900 540 Climbing Denver Center
00:49 40.5250 -100.6542 75° East 442 509 39,000  Climbing Denver Center
00:50 40.5550 -100.5006 76° East 455 524 39,000  Level Denver Center
00:51 40.5897 -100.3183 76° East 463 533 39,000  Level Denver Center
00:52 40.6206 -100.1600 76° East 467 537 39,000  Level Denver Center
00:53 40.6506 -100.0003 76° East 470 541 39,000  Level Denver Center
00:55 40.6817 -99.8344 76° East 469 540 39,000  Level Denver Center
00:56 40.7128 -99.6692 76° East 466 536 39,000  Level Denver Center
00:57 40.7431 -99.5028 76° East 468 539 39,000  Level Denver Center
00:58 40.7733 -99.3356 77° East 470 541 39,000  Level Denver Center
00:59 40.8033 -99.1692 77° East 469 540 39,000  Level Denver Center
01:00 40.8358 -98.9883 77° East 474 545 39,000  Level Denver Center
01:01 40.8700 -98.7978 77° East 477 549 39,000  Level Denver Center
01:02 40.8983 -98.6264 78° East 483 556 39,000  Level Denver Center
01:03 40.9294 -98.4561 76° East 483 556 39,000  Level Denver Center
01:04 40.9647 -98.2508 77° East 482 555 39,000  Level Minneapolis Center
01:05 40.9939 -98.0800 77° East 480 552 39,000  Level Minneapolis Center
01:06 41.0222 -97.9067 78° East 482 555 39,000  Level Minneapolis Center
01:07 41.0511 -97.7353 77° East 479 551 39,000  Level Minneapolis Center
01:08 41.0797 -97.5619 78° East 481 554 39,000  Level Minneapolis Center
01:09 41.1103 -97.3794 77° East 479 551 39,000  Level Minneapolis Center
01:10 41.1372 -97.2061 78° East 480 552 39,000  Level Minneapolis Center
01:11 41.1661 -97.0339 77° East 479 551 39,000  Level Minneapolis Center
01:12 41.1936 -96.8611 78° East 480 552 39,000  Level Minneapolis Center
01:13 41.2208 -96.6892 78° East 478 550 39,000  Level Minneapolis Center
01:14 41.2483 -96.5161 78° East 479 551 39,000  Level Minneapolis Center
01:15 41.2750 -96.3444 78° East 478 550 39,000  Level Minneapolis Center
01:16 41.2989 -96.1800 79° East 479 551 39,000  Level Minneapolis Center
01:17 41.3242 -96.0072 79° East 478 550 39,000  Level Minneapolis Center
01:18 41.3503 -95.8344 79° East 476 548 39,000  Level Minneapolis Center
01:19 41.3753 -95.6617 79° East 476 548 39,000  Level Minneapolis Center
01:20 41.4000 -95.4956 79° East 476 548 39,000  Level Minneapolis Center
01:21 41.4256 -95.3228 79° East 477 549 39,000  Level Minneapolis Center
01:22 41.4506 -95.1481 79° East 478 550 39,000  Level Minneapolis Center
01:23 41.4747 -94.9764 79° East 475 547 39,000 -180 Level Minneapolis Center
01:24 41.4997 -94.8036 79° East 475 547 38,700 -780 Descending Minneapolis Center
01:25 41.5225 -94.6311 80° East 472 543 37,500 -1,200 Descending Minneapolis Center
01:26 41.5456 -94.4597 80° East 471 542 36,300 -1,260 Descending Minneapolis Center
01:27 41.5692 -94.2850 80° East 476 548 35,000 -1,440 Descending Minneapolis Center
01:28 41.5964 -94.0822 80° East 483 556 33,500 -1,500 Descending Minneapolis Center
01:29 41.6192 -93.9042 80° East 487 560 32,000 -1,920 Descending Minneapolis Center
01:30 41.6433 -93.7289 79° East 485 558 29,700 -2,340 Descending Minneapolis Center
01:31 41.6644 -93.5564 81° East 477 549 27,400 -2,160 Descending Minneapolis Center
01:32 41.6781 -93.4494 80° East 480 552 26,000 -2,160 Descending Minneapolis Center
01:33 41.7019 -93.2708 80° East 488 562 23,700 -2,340 Descending Minneapolis Center
01:34 41.7225 -93.0989 81° East 479 551 21,400 -2,340 Descending Minneapolis Center
01:35 41.7428 -92.9328 81° East 465 535 19,100 -2,340 Descending Minneapolis Center
01:36 41.7631 -92.7689 81° East 443 510 16,800 -2,340 Descending Minneapolis Center
01:37 41.7808 -92.6192 81° East 422 486 14,500 -1,980 Descending Minneapolis Center
01:38 41.7981 -92.4611 82° East 364 419 12,800 -1,500 Descending Chicago Center
01:39 41.8122 -92.3478 80° East 322 371 11,500 -1,500 Descending Chicago Center
01:40 41.8356 -92.2483 72° East 290 334 9,800 -1,740 Descending Chicago Center
01:41 41.8600 -92.1483 72° East 284 327 8,000 -1,440 Descending Chicago Center
01:42 41.8836 -92.0514 72° East 285 328 6,900 -1,500 Descending Chicago Center
01:43 41.8883 -91.9653 86° East 241 277 5,100 -1,800 Descending Chicago Center
01:44 41.8861 -91.8847 92° East 223 257 3,400 -1,440 Descending Chicago Center
01:45 41.8864 -91.8256 90° East 177 204 2,300 -960 Descending Chicago Center
01:46 41.8853 -91.7697 92° East 157 181 1,500 -720 Descending Chicago Center
01:47 41.8842 -91.7078 91° East 157 181 900 -600 Descending Chicago Center